29P/Schwassmann-Wachmann 1 (2019)

Japanese version
Home page
Updated on August 16, 2015

---------------------------------------------------------------------

* Profile

* Pictures

* Orbital Elements

Epoch 2019 Mar. 18.0 TT = JDT 2458560.5
T 2019 Mar. 7.75579 TT                                  MPCW
q   5.7668224            (2000.0)            P               Q
n   0.06662629     Peri.   47.77431     +0.99270158     -0.00956904
a   6.0261364      Node   312.39467     -0.05135174     +0.86841747
e   0.0430315      Incl.    9.36834     +0.10911726     +0.49574140
P  14.8
From 18409 observations 1902 Mar. 5-2015 Jan. 31, mean residual 0".6.

* Finding Charts

* Magnitudes Graph

        m1 = 4.0 + 5 log d + 7.5 log r

---------------------------------------------------------------------

The orbital elements are published on M.P.E.C. 2015-B177.
The charts are made with StellaNavigator Ver.8 (AstroArts).
The magnitudes graphs are made with Comet for Windows.

---------------------------------------------------------------------

Copyright(C) Seiichi Yoshida (comet@aerith.net). All rights reserved.